Regional Weather Roundup
Issued by NWS

Home | Current Version | Previous Version | Graphics & Text | Print | Product List | Glossary On
Versions: 1 2 3 4 5 6 7 8 9 10 11 12 13 14 15 16 17 18 19 20 21 22 23 24 25 26 27 28 29 30 31 32 33 34 35 36 37 38 39 40 41 42 43 44 45 46 47 48 49 50
000
ASUS43 KOAX 280402
RWRNE

WEATHER ROUNDUP FOR NEBRASKA
NATIONAL WEATHER SERVICE OMAHA NE
1100 PM CDT SUN JUL 27 2014

NOTES: SATELLITE DATA IS BEING USED TO AUGMENT CLOUD COVER ABOVE
       12000 FEET.
       "FAIR" INDICATES FEW OR NO CLOUDS BELOW 12,000 FEET WITH NO
       SIGNIFICANT WEATHER AND/OR OBSTRUCTIONS TO VISIBILITY.

  * THESE STATIONS DO NOT REPORT WEATHER SUCH AS RAIN...SNOW OR FOG.

NEZ001>004-019>022-054>056-280500-
NEBRASKA PANHANDLE

CITY           SKY/WX    TMP DP  RH WIND       PRES   REMARKS
SCOTTSBLUFF    CLEAR     69  55  60 E7        30.30R
ALLIANCE       CLEAR     65  50  58 E8        30.32R
CHADRON        PTCLDY    66  50  56 SE5       30.29R
KIMBALL        PTCLDY    69  48  47 SE6       30.35R
SIDNEY         PTCLDY    71  47  42 SE8       30.33R
$$

NEZ057>060-069>072-079>082-280500-
SOUTHWEST NEBRASKA

CITY           SKY/WX    TMP DP  RH WIND       PRES   REMARKS
NORTH PLATTE   CLEAR     63  50  62 SE3       30.27R
IMPERIAL       MOCLDY    69  54  58 SE5       30.29R
LEXINGTON      CLEAR     64  57  80 E3        30.25S
MCCOOK         CLEAR     69  54  58 NE5       30.26R
$$

NEZ005>010-023>029-035>040-094-280500-
NORTH CENTRAL NEBRASKA

CITY           SKY/WX    TMP DP  RH WIND       PRES   REMARKS
VALENTINE      CLEAR     66  52  60 NE7       30.29R
AINSWORTH      CLEAR     62  53  72 NE3       30.29R
BROKEN BOW     CLEAR     62  55  77 NE6       30.26R
ORD            CLEAR     64  55  72 N3        30.25R
$$

NEZ041-046>049-061>064-073>077-083>087-280500-
SOUTH CENTRAL NEBRASKA

CITY           SKY/WX    TMP DP  RH WIND       PRES   REMARKS
GRAND ISLAND   CLEAR     65  58  78 N7        30.23R
AURORA         CLEAR     65  61  87 N5        30.23R
HASTINGS       CLEAR     67  58  72 NE3       30.23R
HEBRON         CLEAR     66  59  78 CALM      30.20R
HOLDREGE       CLEAR     66  58  73 CALM      30.24R
KEARNEY *      CLEAR     64  55  72 N8        30.25R
YORK           CLEAR     66  63  88 N3        30.22R
$$

NEZ011>018-030>034-042>045-280500-
NORTHEAST NEBRASKA

CITY           SKY/WX    TMP DP  RH WIND       PRES   REMARKS
NORFOLK        CLEAR     65  57  75 N12       30.23R
ALBION         CLEAR     64  57  79 N6        30.24R
BLAIR          CLEAR     67  57  70 N13       30.18R
COLUMBUS *     CLEAR     63  55  77 N6        30.21S
FREMONT        CLEAR     67  58  72 N5        30.20R
WAYNE          CLEAR     60  57  90 NW3       30.23R
$$

NEZ050>053-065>068-078-088>093-280500-
SOUTHEAST NEBRASKA

CITY           SKY/WX    TMP DP  RH WIND       PRES   REMARKS
LINCOLN        CLEAR     71  57  61 NW7       30.19R
OMAHA EPPLEY   PTCLDY    67  58  72 N9        30.17R
BEATRICE       CLEAR     64  59  83 NE6       30.18R
NEBRASKA CITY  CLEAR     66  56  69 N7        30.16S
PLATTSMOUTH    CLEAR     66  56  68 NW6       30.17R
$$

NEZ044-045-051>053-067-280500-
OMAHA AREA

CITY           SKY/WX    TMP DP  RH WIND       PRES   REMARKS
OMAHA EPPLEY   PTCLDY    67  58  72 N9        30.17R
BLAIR          CLEAR     67  57  70 N13       30.18R
FREMONT        CLEAR     67  58  72 N5        30.20R
MILLARD        CLEAR     72  58  62 N5        30.17R
OFFUTT AFB     CLEAR     70  59  67 N9        30.16R
PLATTSMOUTH    CLEAR     66  56  68 NW6       30.17R
WAHOO          FAIR      66  58  77 NW6       30.19R
$$


USA.gov is the U.S. government's official web portal to all federal, state and local government web resources and services.